CST,Max TemperatureF,Mean TemperatureF,Min TemperatureF,Max Dew PointF,MeanDew PointF,Min DewpointF,Max Humidity, Mean Humidity, Min Humidity, Max Sea Level PressureIn, Mean Sea Level PressureIn, Min Sea Level PressureIn, Max VisibilityMiles, Mean VisibilityMiles, Min VisibilityMiles, Max Wind SpeedMPH, Mean Wind SpeedMPH, Max Gust SpeedMPH,PrecipitationIn, CloudCover, Events, WindDirDegrees
2012-2-1,75,66,57,66,63,57,100,92,64,30.13,30.07,30.01,10,5,0,6,1,,0.00,5,Fog,133
2012-2-2,75,66,57,67,63,57,100,93,71,30.09,30.02,29.89,10,5,0,13,3,20,0.00,6,Fog-Rain,114
2012-2-3,75,70,66,68,66,61,100,90,69,29.98,29.93,29.85,10,8,5,13,7,,0.00,8,Rain-Thunderstorm,140
2012-2-4,69,60,51,66,49,37,94,73,47,30.26,30.09,29.95,10,8,2,18,8,36,0.36,7,Rain-Thunderstorm,13
2012-2-5,52,48,44,40,38,35,80,69,56,30.38,30.31,30.22,10,10,10,20,13,26,0.06,8,Rain,14
2012-2-6,50,47,44,43,38,34,90,73,61,30.38,30.29,30.20,10,10,9,10,6,,0.00,7,Rain,31
2012-2-7,61,52,42,47,43,41,100,71,52,30.32,30.22,30.17,10,9,6,12,2,17,0.00,7,,38
2012-2-8,57,51,45,43,40,37,80,67,53,30.47,30.37,30.31,10,10,8,16,11,26,0.00,2,,39
2012-2-9,57,50,42,47,42,38,86,74,59,30.34,30.23,30.13,10,8,4,7,6,,0.00,4,,120
2012-2-10,64,55,46,52,47,36,100,85,35,30.29,30.15,30.07,10,5,1,10,4,18,0.22,6,Rain,351
2012-2-11,54,46,39,37,28,17,83,53,33,30.53,30.41,30.28,10,9,6,17,10,22,0.00,0,,47
2012-2-12,44,38,33,40,28,17,100,66,43,30.53,30.36,30.17,10,8,2,17,11,24,0.00,7,Rain,67
2012-2-13,63,52,41,52,45,39,100,93,65,30.14,30.00,29.86,10,5,2,13,6,,0.38,6,Rain,6
2012-2-14,68,54,39,63,50,39,100,92,68,29.97,29.91,29.86,10,5,0,15,2,17,0.00,3,Fog-Rain,124
2012-2-15,80,68,57,67,60,44,100,82,29,30.03,29.91,29.86,10,4,0,12,3,17,0.00,5,Fog-Rain,337
2012-2-16,63,59,55,49,43,36,77,55,41,30.18,30.09,30.03,10,10,8,16,8,22,0.00,5,Rain,44
2012-2-17,57,54,51,57,53,48,100,96,77,30.08,29.98,29.83,8,3,1,12,9,20,0.53,8,Rain-Thunderstorm,43
2012-2-18,61,57,50,57,54,45,100,91,62,30.09,29.87,29.78,10,6,1,21,7,32,0.93,7,Rain-Thunderstorm,319
2012-2-19,61,52,43,47,45,41,93,74,56,30.16,30.08,30.02,10,10,10,9,3,,0.00,0,,96
2012-2-20,69,58,46,58,53,45,100,88,63,30.12,30.06,29.99,10,7,2,7,3,,0.00,3,,129
2012-2-21,73,62,51,63,58,52,100,89,57,30.18,30.10,29.98,10,5,0,10,3,,0.00,6,Fog,124
2012-2-22,80,72,62,65,60,50,100,78,38,29.98,29.87,29.71,10,8,2,15,9,18,0.00,5,,225
2012-2-23,84,69,54,67,57,50,97,69,31,29.71,29.64,29.57,10,9,5,10,3,,0.00,0,,233
2012-2-24,73,62,46,62,27,20,68,33,21,30.40,30.13,29.73,10,10,7,25,18,39,0.00,1,,27
2012-2-25,53,48,41,39,32,27,73,55,40,30.45,30.35,30.26,10,10,10,10,3,,0.00,1,,198
2012-2-26,63,50,36,54,45,32,93,74,60,30.24,30.14,30.04,10,10,10,12,3,,0.00,5,,149
2012-2-27,64,62,59,64,61,54,100,95,77,30.21,30.14,30.10,10,5,1,13,6,,0.07,8,Rain,94
2012-2-28,79,70,62,68,65,62,100,89,64,30.12,30.02,29.88,10,6,0,17,10,24,0.00,6,Fog-Rain,149
2012-2-29,78,72,66,67,64,55,94,81,61,30.03,29.96,29.91,10,8,5,12,6,,0.00,6,,75